[[{"header":{"parameterUnit":"m.s-1","parameterCategory":1,"la1":30.2991,"la2":30.254,"lo1":-89.0895,"lo2":-89.0444,"dy":0.0017,"dx":0.0017,"nx":28,"ny":28,"refTime":"2024-05-18T03:00:00:Z","depth":0,"parameterNumber":2,"parameterNumberName":"U-component_of_WINDS"},"data":[0,0,0,0,0,0,0,0,0,0,0,0,0,0,0,0,0,0,0,0,0,0,0,0,0,0,0,0,0,0,0,0,0,0,0,0,0,0,0,0,0,0,0,0,0,0,0,0,0,0,0,0,0,0,0,0,0,0,-0.7963,-0.7962,0,-0.7924,-0.7923,-0.7923,-0.7875,-0.7874,-0.7874,-0.7873,-0.7834,-0.7834,-0.7833,0,0,0,0,0,0,0,0,0,0,0,0,0,-0.7996,-0.7995,-0.7963,-0.7962,-0.7962,-0.7924,-0.7923,-0.7923,-0.7875,-0.7874,-0.7873,-0.7872,-0.7834,-0.7834,-0.7833,0,0,0,0,0,0,0,0,0,0,0,0,0,-0.7972,-0.7995,-0.7963,-0.7933,-0.793,-0.7924,-0.7923,-0.7923,-0.7875,-0.7874,-0.7873,-0.7872,-0.7834,-0.7834,-0.7833,-0.7853,0,0,-0.7832,-0.7831,0,0,0,0,0,0,0,0,-0.7973,-0.797,-0.7938,-0.7935,-0.7932,-0.7903,-0.7921,-0.7899,-0.7876,-0.7896,-0.7873,-0.7871,-0.7858,-0.7855,-0.7851,-0.7851,-0.7849,-0.7832,-0.7831,-0.7831,-0.7831,0,0,0,0,0,0,0,-0.7975,-0.7972,-0.7947,-0.7938,-0.7934,-0.7922,-0.7917,-0.7916,-0.7884,-0.7894,-0.7891,-0.7887,-0.7856,-0.7851,-0.7849,-0.7849,-0.7832,-0.7831,-0.7831,-0.7831,-0.7862,-0.7863,0,0,0,0,0,0,-0.7981,-0.7974,-0.7948,-0.7946,-0.795,-0.7922,-0.7917,-0.7913,-0.7884,-0.7878,-0.7888,-0.7885,-0.7853,-0.785,-0.7848,-0.7868,-0.7831,-0.7831,-0.783,-0.7861,-0.7862,-0.7864,0,0,0,0,0,0,-0.7982,-0.7979,-0.795,-0.7959,-0.7954,-0.7923,-0.7919,-0.7913,-0.7908,-0.7879,-0.7873,-0.7889,-0.7852,-0.7848,-0.7852,-0.7866,-0.783,-0.783,-0.786,-0.7861,-0.7863,-0.7909,0,0,0,0,0,0,-0.7983,-0.798,-0.7987,-0.7959,-0.7954,-0.7955,-0.792,-0.7913,-0.7908,-0.7903,-0.7878,-0.7873,-0.785,-0.7853,-0.7851,-0.7864,-0.7829,-0.7858,-0.7861,-0.7863,-0.7906,-0.7912,-0.7917,0,0,0,0,0,-0.7984,-0.8001,-0.7987,-0.7984,-0.7962,-0.7955,-0.7952,-0.7926,-0.7909,-0.7916,-0.7897,-0.7874,-0.7865,-0.7853,-0.7851,-0.7865,-0.7857,-0.786,-0.7862,-0.7903,-0.7911,-0.7917,0,0,0,0,0,0,-0.8032,-0.7997,-0.7981,-0.799,-0.7976,-0.7947,-0.7955,-0.7935,-0.7925,-0.7921,-0.7889,-0.7884,-0.7891,-0.7878,-0.7866,-0.7882,-0.7858,-0.786,-0.7889,-0.7896,-0.7902,-0.7904,-0.7829,0,0,0,0,0,-0.8043,-0.804,-0.8011,-0.8021,-0.8015,-0.7987,-0.7983,-0.7963,-0.7948,-0.7941,-0.7923,-0.7908,-0.7902,-0.7899,-0.7891,-0.7904,-0.7897,-0.7912,-0.7918,-0.7923,-0.7925,-0.7929,-0.7935,-0.7872,-0.7872,-0.7872,0,0,-0.8067,-0.8048,-0.8048,-0.8031,-0.8017,-0.8015,-0.7982,-0.7981,-0.7979,-0.7941,-0.7943,-0.7929,-0.791,-0.7918,-0.7921,-0.7908,-0.7941,-0.7926,-0.793,-0.7929,-0.7933,-0.7939,-0.7944,-0.7874,-0.7873,-0.7873,0,0,-0.8109,-0.8094,-0.8101,-0.8088,-0.8069,-0.8049,-0.8051,-0.8026,-0.8015,-0.8015,-0.7987,-0.7984,-0.7975,-0.7962,-0.7955,-0.7992,-0.797,-0.7991,-0.8019,-0.8024,-0.8029,-0.8034,-0.8046,-0.8051,-0.7993,-0.7993,-0.7993,0,-0.8141,-0.8136,-0.8107,-0.8108,-0.8101,-0.8067,-0.8073,-0.8062,-0.8041,-0.8037,-0.8023,-0.801,-0.7995,-0.7999,-0.8008,-0.8004,-0.8004,-0.7993,-0.8031,-0.8035,-0.8039,-0.805,-0.8055,-0.7996,-0.7995,-0.7995,-0.7995,0,-0.8176,-0.8173,-0.8181,-0.8161,-0.8155,-0.8159,-0.8131,-0.8128,-0.8109,-0.8092,-0.8093,-0.8074,-0.8062,-0.8062,-0.8044,-0.8063,-0.8056,-0.8037,-0.8012,-0.8048,-0.8057,-0.8062,-0.7999,-0.7998,-0.7998,-0.7997,0,0,-0.8246,-0.821,-0.8213,-0.8203,-0.8179,-0.8176,-0.8178,-0.8166,-0.8164,-0.8151,-0.8151,-0.8144,-0.8126,-0.8118,-0.8098,-0.8103,-0.8132,-0.8083,-0.8083,-0.8092,-0.8151,-0.8165,-0.817,-0.8118,-0.8119,-0.812,-0.8152,0,-0.8282,-0.8283,-0.8257,-0.8265,-0.8262,-0.8229,-0.8231,-0.8217,-0.82,-0.8195,-0.8177,-0.8172,-0.8149,-0.8144,-0.8147,-0.8128,-0.8143,-0.8126,-0.8118,-0.8118,-0.8122,-0.8175,-0.819,-0.8221,-0.8156,-0.8157,-0.8157,0,-0.8324,-0.8313,-0.8321,-0.8295,-0.8293,-0.8295,-0.8281,-0.8277,-0.826,-0.8247,-0.8238,-0.8216,-0.8216,-0.8193,-0.8192,-0.8181,-0.8176,-0.8166,-0.8167,-0.8164,-0.8139,-0.8173,-0.8231,-0.8235,-0.8163,-0.8163,-0.8162,0,-0.8373,-0.836,-0.8363,-0.8355,-0.8326,-0.8328,-0.8316,-0.8298,-0.8292,-0.828,-0.8276,-0.8265,-0.8258,-0.825,-0.8225,-0.8211,-0.8227,-0.8203,-0.8217,-0.8217,-0.8221,-0.822,-0.8277,-0.822,-0.822,-0.822,-0.822,0,-0.8416,-0.8422,-0.8384,-0.8386,-0.8391,-0.8362,-0.8368,-0.8352,-0.8336,-0.8334,-0.8306,-0.8304,-0.8272,-0.8267,-0.8248,-0.825,-0.8247,-0.8237,-0.8232,-0.8239,-0.824,-0.8235,-0.8232,-0.8221,-0.8221,-0.822,-0.822,0,-0.8471,-0.8446,-0.8447,-0.8419,-0.8412,-0.8417,-0.8393,-0.8393,-0.8375,-0.8373,-0.8371,-0.8342,-0.8335,-0.8309,-0.8296,-0.8283,-0.8291,-0.8281,-0.8296,-0.8293,-0.8308,-0.8306,-0.8362,-0.8368,-0.8308,-0.8308,-0.8309,0,-0.85,-0.8503,-0.8475,-0.8472,-0.8461,-0.8455,-0.8449,-0.842,-0.8415,-0.8395,-0.8398,-0.8388,-0.8378,-0.8368,-0.8346,-0.8336,-0.8325,-0.8345,-0.8323,-0.833,-0.8324,-0.8324,-0.8323,-0.835,-0.8351,-0.8351,-0.8352,0,-0.8552,-0.8539,-0.8531,-0.8519,-0.8512,-0.85,-0.8488,-0.8486,-0.8454,-0.845,-0.8441,-0.8434,-0.842,-0.8411,-0.8396,-0.8384,-0.8362,-0.8359,-0.8362,-0.8368,-0.8377,-0.8371,-0.8308,-0.8358,-0.8357,-0.8357,-0.8356,-0.8356,-0.8594,-0.8595,-0.8575,-0.8567,-0.8554,-0.8543,-0.8541,-0.8523,-0.8515,-0.8501,-0.8485,-0.8479,-0.8461,-0.8439,-0.8429,-0.8423,-0.8411,-0.8415,-0.8416,-0.8417,-0.842,-0.8379,-0.8421,-0.842,-0.842,-0.842,-0.842,0,-0.8644,-0.863,-0.8622,-0.8605,-0.8598,-0.8579,-0.8563,-0.8559,-0.8554,-0.8539,-0.853,-0.852,-0.8511,-0.8488,-0.8476,-0.8476,-0.8466,-0.8474,-0.8473,-0.8471,-0.8432,-0.843,-0.8482,-0.8482,-0.8482,-0.8482,-0.8482,-0.8482,-0.8669,-0.867,-0.8655,-0.8649,-0.8635,-0.8628,-0.862,-0.861,-0.8597,-0.8588,-0.8579,-0.8565,-0.8546,-0.8533,-0.8524,-0.8517,-0.8514,-0.8525,-0.8515,-0.8479,-0.8473,-0.8468,-0.8466,-0.8525,-0.8525,-0.8554,-0.8554,-0.8555]},{"header":{"parameterUnit":"m.s-1","parameterCategory":1,"la1":30.2991,"la2":30.254,"lo1":-89.0895,"lo2":-89.0444,"dy":0.0017,"dx":0.0017,"nx":28,"ny":28,"refTime":"2024-05-18T03:00:00:Z","depth":0,"parameterNumber":3,"parameterNumberName":"V-component_of_WINDS"},"data":[0,0,0,0,0,0,0,0,0,0,0,0,0,0,0,0,0,0,0,0,0,0,0,0,0,0,0,0,0,0,0,0,0,0,0,0,0,0,0,0,0,0,0,0,0,0,0,0,0,0,0,0,0,0,0,0,0,0,4.7357,4.7358,0,4.7454,4.7455,4.7456,4.7491,4.7491,4.7491,4.749,4.7581,4.7584,4.7586,0,0,0,0,0,0,0,0,0,0,0,0,0,4.7194,4.7197,4.7357,4.7358,4.736,4.7454,4.7455,4.7456,4.7491,4.7491,4.7491,4.749,4.758,4.7583,4.7587,0,0,0,0,0,0,0,0,0,0,0,0,0,4.7275,4.7197,4.7357,4.7389,4.7392,4.7454,4.7455,4.7457,4.7491,4.7491,4.749,4.749,4.7579,4.7583,4.7587,4.7621,0,0,4.76,4.7601,0,0,0,0,0,0,0,0,4.727,4.7281,4.7383,4.7387,4.7391,4.746,4.7431,4.7512,4.7491,4.7453,4.749,4.749,4.7541,4.7548,4.7567,4.7626,4.763,4.76,4.7602,4.7604,4.7605,0,0,0,0,0,0,0,4.7264,4.7277,4.7395,4.7384,4.7389,4.7395,4.7406,4.7446,4.7498,4.7457,4.746,4.7471,4.7543,4.7563,4.7569,4.7631,4.76,4.7603,4.7606,4.7607,4.7722,4.7723,0,0,0,0,0,0,4.7255,4.7272,4.7392,4.7398,4.7328,4.7398,4.7411,4.7438,4.7498,4.7507,4.7471,4.7472,4.7556,4.7564,4.7572,4.7617,4.7604,4.7608,4.761,4.7722,4.7722,4.7723,0,0,0,0,0,0,4.7251,4.7265,4.7388,4.7336,4.7352,4.7402,4.7432,4.744,4.7461,4.7509,4.7518,4.7483,4.7556,4.7567,4.761,4.7621,4.761,4.7613,4.7721,4.7722,4.7723,4.7706,0,0,0,0,0,0,4.7246,4.7264,4.7279,4.7336,4.7355,4.7426,4.7433,4.7443,4.7469,4.7471,4.7522,4.753,4.7557,4.7603,4.7614,4.7626,4.7617,4.772,4.7721,4.7722,4.7706,4.7706,4.7707,0,0,0,0,0,4.724,4.7269,4.728,4.7294,4.7376,4.7427,4.7437,4.7469,4.7469,4.7484,4.7515,4.7529,4.7618,4.7607,4.7619,4.7633,4.7719,4.7721,4.7722,4.7706,4.7706,4.7707,0,0,0,0,0,0,4.7209,4.7277,4.729,4.7339,4.7377,4.7433,4.7453,4.7469,4.7506,4.7506,4.7542,4.7553,4.7593,4.7617,4.7604,4.7669,4.7669,4.7673,4.7652,4.7653,4.7654,4.7647,4.762,0,0,0,0,0,4.7209,4.7247,4.7303,4.734,4.7359,4.7403,4.7426,4.7448,4.7488,4.7503,4.7537,4.7573,4.761,4.7633,4.7668,4.7709,4.772,4.7724,4.7724,4.7725,4.7728,4.775,4.7753,4.7727,4.7727,4.7727,0,0,4.7206,4.7248,4.727,4.7335,4.7368,4.7404,4.7416,4.7454,4.7481,4.7508,4.7552,4.7578,4.762,4.7662,4.7682,4.7683,4.7737,4.7726,4.7726,4.7729,4.7752,4.7754,4.7757,4.7728,4.7728,4.7728,0,0,4.7222,4.7258,4.7294,4.7326,4.7376,4.7405,4.7413,4.7467,4.7486,4.7531,4.7552,4.7582,4.7644,4.7674,4.7696,4.7723,4.7736,4.7733,4.7735,4.7757,4.7759,4.7761,4.7771,4.7773,4.7735,4.7735,4.7735,0,4.7213,4.7272,4.7308,4.7347,4.7374,4.7403,4.7437,4.7466,4.7524,4.7541,4.7542,4.762,4.765,4.77,4.7706,4.7724,4.7733,4.7728,4.7756,4.7759,4.7761,4.777,4.7774,4.7735,4.7735,4.7735,4.7735,0,4.7258,4.7299,4.732,4.7379,4.7409,4.7444,4.7484,4.7508,4.7527,4.7554,4.7598,4.7636,4.768,4.7693,4.771,4.7744,4.7744,4.775,4.7751,4.7762,4.7772,4.7775,4.7734,4.7734,4.7734,4.7734,0,0,4.7258,4.7337,4.7344,4.7371,4.7428,4.7459,4.7494,4.754,4.7561,4.7599,4.7629,4.768,4.7687,4.7713,4.7733,4.7752,4.7771,4.7756,4.7758,4.7758,4.781,4.7806,4.781,4.778,4.778,4.7781,4.7807,0,4.7281,4.7351,4.7385,4.7438,4.7475,4.7503,4.7534,4.757,4.7597,4.763,4.7657,4.7693,4.7699,4.7715,4.7735,4.7764,4.7782,4.7763,4.7806,4.7807,4.7796,4.7815,4.781,4.7833,4.7811,4.7811,4.7812,0,4.7319,4.736,4.7419,4.7472,4.7488,4.7516,4.7561,4.7593,4.7634,4.7651,4.7681,4.7701,4.7737,4.7735,4.7784,4.7771,4.779,4.7807,4.7808,4.7814,4.7811,4.7821,4.7841,4.7844,4.7818,4.7817,4.7817,0,4.7313,4.7383,4.7428,4.745,4.7512,4.7531,4.7557,4.7598,4.7624,4.7661,4.7678,4.7718,4.774,4.7769,4.7798,4.7794,4.7845,4.7845,4.7859,4.7858,4.7869,4.7869,4.7893,4.788,4.788,4.788,4.788,0,4.7337,4.7372,4.7427,4.7454,4.7493,4.7529,4.7565,4.7593,4.7629,4.766,4.7684,4.7712,4.7749,4.7781,4.7804,4.7841,4.785,4.7864,4.787,4.7863,4.7861,4.7877,4.7876,4.7881,4.7881,4.7881,4.7881,0,4.7338,4.7376,4.7427,4.7482,4.7497,4.7523,4.7569,4.7595,4.7623,4.7661,4.7672,4.7714,4.7753,4.7785,4.7835,4.785,4.7889,4.7895,4.7876,4.788,4.7892,4.7891,4.7928,4.7935,4.7917,4.7917,4.7917,0,4.7351,4.7379,4.7439,4.7463,4.749,4.7528,4.7555,4.759,4.7617,4.7665,4.7685,4.7726,4.7761,4.7821,4.7854,4.7892,4.79,4.791,4.7905,4.7897,4.7901,4.7899,4.7902,4.7911,4.7911,4.7911,4.7911,0,4.7371,4.7388,4.7428,4.7474,4.7506,4.7543,4.758,4.7598,4.764,4.7667,4.7709,4.7736,4.7788,4.7828,4.787,4.7893,4.7909,4.7912,4.7917,4.7911,4.7899,4.7906,4.7878,4.7911,4.7911,4.7911,4.7911,4.7911,4.7379,4.7405,4.7452,4.7494,4.7527,4.7561,4.7589,4.762,4.7657,4.7704,4.7722,4.7764,4.7803,4.7861,4.7884,4.7916,4.7918,4.7925,4.7928,4.7929,4.7929,4.7893,4.7923,4.7923,4.7923,4.7924,4.7924,0,4.74,4.7432,4.7471,4.7524,4.7557,4.7571,4.7612,4.7638,4.7677,4.7713,4.7748,4.7794,4.7833,4.7869,4.7909,4.7927,4.7935,4.7937,4.7936,4.7941,4.7924,4.7916,4.793,4.793,4.793,4.793,4.793,4.793,4.7415,4.7461,4.7484,4.7544,4.7574,4.7619,4.7642,4.7672,4.7702,4.7755,4.7788,4.7812,4.7848,4.7891,4.7926,4.7935,4.7949,4.7949,4.796,4.7943,4.7942,4.7941,4.7934,4.7951,4.7951,4.7974,4.7974,4.7975]}]]